Voltar ao catálogo

COSMOS 1104

AtivoNavegaçãoPO
NORAD 11378·PAYLOAD·🇷🇺 Russia

Lançado May 31, 1979 de Plesetsk Cosmodrome

Loading…

Próximas Passagens (próximas 24 horas)

TLE

AtualizadoSource: Space-Track

Época: Sep 14, 2026, 13:19 UTC

1 11378U 79046A   26257.55503435  .00000056  00000-0  42561-4 0  9991
2 11378  82.9511 354.2925 0031692 317.7851  53.0707 13.76000976373869

Acompanhe COSMOS 1104 em tempo real com AllMySat

Download on the App Store